Location: Albuquerque Trailhead
(34.7934°N, 106.3736°W)
Time: 00:41:42
(UTC+00:00)

PEGASUS R/B - Pass Details

Date: 20 June 2021
Orbit: 297 x 3563 km, 105.6° (Epoch: 01 August)

Event Time Altitude Azimuth Distance (km) Brightness Sun altitude
Exits shadow 02:54:04 - 164° (SSE) 1,954 6.7 -6.4°
Reaches altitude 10° 02:55:05 10° 166° (SSE) 1,485 6.1 -6.6°
Maximum altitude 02:58:02 72° 251° (WSW) 579 4.6 -7.1°
Drops below altitude 10° 03:03:04 10° 336° (NNW) 2,508 8.7 -8.0°
Sets 03:06:18 0° 338° (NNW) 3,934 9.8 -8.5°
